Time,TemperatureF,DewpointF,PressureIn,WindDirection,WindDirectionDegrees,WindSpeedMPH,WindSpeedGustMPH,Humidity,HourlyPrecipIn,Conditions,Clouds,dailyrainin,SoftwareType,DateUTC
2013-04-29 00:00:00,37.0,11.0,-100.00,WNW,297,7.0,23.0,32,-99.99,,,-99.99,,2013-04-29 06:00:00,
2013-04-29 00:42:00,37.0,11.0,-100.00,WNW,297,7.0,23.0,32,-99.99,,,-99.99,,2013-04-29 06:42:00,
2013-04-29 00:52:00,37.0,11.0,-100.00,WNW,297,7.0,23.0,32,-99.99,,,-99.99,,2013-04-29 06:52:00,
2013-04-29 01:00:00,37.0,12.0,-100.00,WNW,301,9.0,19.0,35,-99.99,,,-99.99,,2013-04-29 07:00:00,
2013-04-29 01:42:00,37.0,12.0,-100.00,WNW,301,9.0,19.0,35,-99.99,,,-99.99,,2013-04-29 07:42:00,
2013-04-29 01:52:00,37.0,12.0,-100.00,WNW,301,9.0,19.0,35,-99.99,,,-99.99,,2013-04-29 07:52:00,
2013-04-29 02:00:00,37.0,12.0,-100.00,NNW,342,12.0,22.0,36,-99.99,,,-99.99,,2013-04-29 08:00:00,
2013-04-29 02:42:00,37.0,12.0,-100.00,NNW,342,12.0,22.0,36,-99.99,,,-99.99,,2013-04-29 08:42:00,
2013-04-29 02:52:00,37.0,12.0,-100.00,NNW,342,12.0,22.0,36,-99.99,,,-99.99,,2013-04-29 08:52:00,
2013-04-29 03:00:00,37.0,12.0,-100.00,NW,322,10.0,20.0,36,-99.99,,,-99.99,,2013-04-29 09:00:00,
2013-04-29 03:42:00,37.0,12.0,-100.00,NW,322,10.0,20.0,36,-99.99,,,-99.99,,2013-04-29 09:42:00,
2013-04-29 03:53:00,37.0,12.0,-100.00,NW,322,10.0,20.0,36,-99.99,,,-99.99,,2013-04-29 09:53:00,
2013-04-29 04:00:00,36.0,12.0,-100.00,NW,310,9.0,25.0,37,-99.99,,,-99.99,,2013-04-29 10:00:00,
2013-04-29 04:42:00,36.0,12.0,-100.00,NW,310,9.0,25.0,37,-99.99,,,-99.99,,2013-04-29 10:42:00,
2013-04-29 04:52:00,36.0,12.0,-100.00,NW,310,9.0,25.0,37,-99.99,,,-99.99,,2013-04-29 10:52:00,
2013-04-29 05:00:00,36.0,13.0,-100.00,WNW,292,6.0,20.0,38,-99.99,,,-99.99,,2013-04-29 11:00:00,
2013-04-29 05:42:00,36.0,13.0,-100.00,WNW,292,6.0,20.0,38,-99.99,,,-99.99,,2013-04-29 11:42:00,
2013-04-29 05:52:00,36.0,13.0,-100.00,WNW,292,6.0,20.0,38,-99.99,,,-99.99,,2013-04-29 11:52:00,
2013-04-29 06:00:00,36.0,14.0,-100.00,WNW,302,8.0,24.0,40,-99.99,,,-99.99,,2013-04-29 12:00:00,
2013-04-29 06:42:00,36.0,14.0,-100.00,WNW,302,8.0,24.0,40,-99.99,,,-99.99,,2013-04-29 12:42:00,
2013-04-29 06:52:00,36.0,14.0,-100.00,WNW,302,8.0,24.0,40,-99.99,,,-99.99,,2013-04-29 12:52:00,
2013-04-29 07:00:00,36.0,15.0,-100.00,NNW,327,15.0,31.0,42,-99.99,,,-99.99,,2013-04-29 13:00:00,
2013-04-29 07:42:00,36.0,15.0,-100.00,NNW,327,15.0,31.0,42,-99.99,,,-99.99,,2013-04-29 13:42:00,
2013-04-29 07:52:00,36.0,15.0,-100.00,NNW,327,15.0,31.0,42,-99.99,,,-99.99,,2013-04-29 13:52:00,
2013-04-29 08:00:00,36.0,15.0,-100.00,NW,321,11.0,29.0,43,-99.99,,,-99.99,,2013-04-29 14:00:00,
2013-04-29 08:42:00,36.0,15.0,-100.00,NW,321,11.0,29.0,43,-99.99,,,-99.99,,2013-04-29 14:42:00,
2013-04-29 08:52:00,36.0,15.0,-100.00,NW,321,11.0,29.0,43,-99.99,,,-99.99,,2013-04-29 14:52:00,
2013-04-29 09:00:00,36.0,15.0,-100.00,NW,322,11.0,28.0,43,-99.99,,,-99.99,,2013-04-29 15:00:00,
2013-04-29 09:43:00,36.0,15.0,-100.00,NW,322,11.0,28.0,43,-99.99,,,-99.99,,2013-04-29 15:43:00,
2013-04-29 09:53:00,36.0,15.0,-100.00,NW,322,11.0,28.0,43,-99.99,,,-99.99,,2013-04-29 15:53:00,
2013-04-29 10:00:00,37.0,16.0,-100.00,SW,223,9.0,30.0,42,-99.99,,,-99.99,,2013-04-29 16:00:00,
2013-04-29 10:42:00,37.0,16.0,-100.00,SW,223,9.0,30.0,42,-99.99,,,-99.99,,2013-04-29 16:42:00,
2013-04-29 10:52:00,37.0,16.0,-100.00,SW,223,9.0,30.0,42,-99.99,,,-99.99,,2013-04-29 16:52:00,
2013-04-29 11:00:00,39.0,16.0,-100.00,WSW,250,8.0,27.0,39,-99.99,,,-99.99,,2013-04-29 17:00:00,
2013-04-29 11:42:00,39.0,16.0,-100.00,WSW,250,8.0,27.0,39,-99.99,,,-99.99,,2013-04-29 17:42:00,
2013-04-29 11:52:00,39.0,16.0,-100.00,WSW,250,8.0,27.0,39,-99.99,,,-99.99,,2013-04-29 17:52:00,
2013-04-29 12:00:00,40.0,15.0,-100.00,WSW,250,11.0,26.0,36,-99.99,,,-99.99,,2013-04-29 18:00:00,
2013-04-29 12:42:00,40.0,15.0,-100.00,WSW,250,11.0,26.0,36,-99.99,,,-99.99,,2013-04-29 18:42:00,
2013-04-29 12:52:00,40.0,15.0,-100.00,WSW,250,11.0,26.0,36,-99.99,,,-99.99,,2013-04-29 18:52:00,
2013-04-29 13:00:00,41.0,15.0,-100.00,SW,223,11.0,28.0,34,-99.99,,,-99.99,,2013-04-29 19:00:00,
2013-04-29 13:42:00,41.0,15.0,-100.00,SW,223,11.0,28.0,34,-99.99,,,-99.99,,2013-04-29 19:42:00,
2013-04-29 13:52:00,41.0,15.0,-100.00,SW,223,11.0,28.0,34,-99.99,,,-99.99,,2013-04-29 19:52:00,
2013-04-29 14:00:00,42.0,16.0,-100.00,SW,216,10.0,23.0,34,-99.99,,,-99.99,,2013-04-29 20:00:00,
2013-04-29 14:42:00,42.0,16.0,-100.00,SW,216,10.0,23.0,34,-99.99,,,-99.99,,2013-04-29 20:42:00,
2013-04-29 14:52:00,42.0,16.0,-100.00,SW,216,10.0,23.0,34,-99.99,,,-99.99,,2013-04-29 20:52:00,
2013-04-29 15:00:00,42.0,14.0,-100.00,SSW,209,13.0,32.0,31,-99.99,,,-99.99,,2013-04-29 21:00:00,
2013-04-29 15:43:00,42.0,14.0,-100.00,SSW,209,13.0,32.0,31,-99.99,,,-99.99,,2013-04-29 21:43:00,
2013-04-29 15:53:00,42.0,14.0,-100.00,SSW,209,13.0,32.0,31,-99.99,,,-99.99,,2013-04-29 21:53:00,
2013-04-29 16:00:00,43.0,15.0,-100.00,WSW,238,9.0,24.0,30,-99.99,,,-99.99,,2013-04-29 22:00:00,
2013-04-29 16:42:00,43.0,15.0,-100.00,WSW,238,9.0,24.0,30,-99.99,,,-99.99,,2013-04-29 22:42:00,
2013-04-29 16:52:00,43.0,15.0,-100.00,WSW,238,9.0,24.0,30,-99.99,,,-99.99,,2013-04-29 22:52:00,
2013-04-29 17:00:00,45.0,14.0,-100.00,West,280,7.0,22.0,29,-99.99,,,-99.99,,2013-04-29 23:00:00,
2013-04-29 17:42:00,45.0,14.0,-100.00,West,280,7.0,22.0,29,-99.99,,,-99.99,,2013-04-29 23:42:00,
2013-04-29 17:52:00,45.0,14.0,-100.00,West,280,7.0,22.0,29,-99.99,,,-99.99,,2013-04-29 23:52:00,
2013-04-29 18:00:00,45.0,12.0,-100.00,SW,235,8.0,22.0,26,-99.99,,,-99.99,,2013-04-30 00:00:00,
2013-04-29 18:42:00,45.0,12.0,-100.00,SW,235,8.0,22.0,26,-99.99,,,-99.99,,2013-04-30 00:42:00,
2013-04-29 18:52:00,45.0,12.0,-100.00,SW,235,8.0,22.0,26,-99.99,,,-99.99,,2013-04-30 00:52:00,
2013-04-29 19:00:00,44.0,13.0,-100.00,WSW,253,7.0,18.0,27,-99.99,,,-99.99,,2013-04-30 01:00:00,
2013-04-29 19:42:00,44.0,13.0,-100.00,WSW,253,7.0,18.0,27,-99.99,,,-99.99,,2013-04-30 01:42:00,
2013-04-29 19:52:00,44.0,13.0,-100.00,WSW,253,7.0,18.0,27,-99.99,,,-99.99,,2013-04-30 01:52:00,
2013-04-29 20:00:00,42.0,14.0,-100.00,SW,226,6.0,14.0,32,-99.99,,,-99.99,,2013-04-30 02:00:00,
2013-04-29 20:42:00,42.0,14.0,-100.00,SW,226,6.0,14.0,32,-99.99,,,-99.99,,2013-04-30 02:42:00,
2013-04-29 20:51:00,42.0,14.0,-100.00,SW,226,6.0,14.0,32,-99.99,,,-99.99,,2013-04-30 02:51:00,
2013-04-29 21:00:00,41.0,16.0,-100.00,South,184,11.0,22.0,36,-99.99,,,-99.99,,2013-04-30 03:00:00,
2013-04-29 21:43:00,41.0,16.0,-100.00,South,184,11.0,22.0,36,-99.99,,,-99.99,,2013-04-30 03:43:00,
2013-04-29 21:52:00,41.0,16.0,-100.00,South,184,11.0,22.0,36,-99.99,,,-99.99,,2013-04-30 03:52:00,
2013-04-29 22:00:00,40.0,14.0,-100.00,South,177,15.0,29.0,34,-99.99,,,-99.99,,2013-04-30 04:00:00,
2013-04-29 22:42:00,40.0,14.0,-100.00,South,177,15.0,29.0,34,-99.99,,,-99.99,,2013-04-30 04:42:00,
2013-04-29 22:52:00,40.0,14.0,-100.00,South,177,15.0,29.0,34,-99.99,,,-99.99,,2013-04-30 04:52:00,
2013-04-29 23:00:00,39.0,12.0,-100.00,South,173,14.0,24.0,32,-99.99,,,-99.99,,2013-04-30 05:00:00,
2013-04-29 23:42:00,39.0,12.0,-100.00,South,173,14.0,24.0,32,-99.99,,,-99.99,,2013-04-30 05:42:00,
2013-04-29 23:51:00,39.0,12.0,-100.00,South,173,14.0,24.0,32,-99.99,,,-99.99,,2013-04-30 05:51:00,